Date,TemperatureHighF,TemperatureAvgF,TemperatureLowF,DewpointHighF,DewpointAvgF,DewpointLowF,HumidityHigh,HumidityAvg,HumidityLow,PressureMaxIn,PressureMinIn,WindSpeedMaxMPH,WindSpeedAvgMPH,GustSpeedMaxMPH,PrecipitationSumIn
2012-10-22,74.3,54.2,48.9,45.0,37.6,35.0,63,54,35,29.92,29.69,24,4,0,0.17
2012-10-23,55.4,48.3,42.7,37.0,33.7,32.0,71,57,42,30.15,29.89,28,5,0,0.00
2012-10-24,57.6,45.2,37.5,33.0,31.0,28.0,75,58,32,30.22,30.10,14,2,0,0.00
2012-10-25,56.2,46.7,39.5,38.0,31.0,23.0,83,55,35,30.39,30.26,9,2,0,0.00
2012-10-26,60.0,48.8,38.9,49.0,44.4,37.0,99,85,65,30.31,30.13,13,2,0,0.00
2012-10-27,62.2,51.6,45.0,53.5,43.8,26.0,100,79,25,30.17,30.05,13,2,0,0.00
2012-10-28,58.0,50.8,46.1,50.5,47.5,44.0,100,89,71,30.14,29.95,18,4,0,0.00
2012-10-29,59.0,55.7,50.2,57.0,54.1,50.0,100,94,84,29.98,29.68,42,11,0,0.15
2012-10-30,62.2,60.2,58.2,62.0,60.0,56.5,100,100,94,29.85,29.64,44,10,0,1.75
2012-10-31,60.9,58.8,54.8,61.0,58.8,54.0,100,100,95,29.73,29.54,22,6,0,0.04
2012-11-1,56.3,54.4,51.5,54.5,52.5,47.5,97,92,87,29.63,29.52,245,22,0,0.00
2012-11-2,75.2,50.1,46.4,50.5,46.5,40.0,98,87,41,29.57,29.49,235,6,0,0.75
2012-11-3,50.4,46.6,43.2,46.0,39.8,36.0,91,78,67,29.72,29.52,22,7,0,0.00
2012-11-4,47.6,43.6,37.4,39.0,35.8,29.0,85,74,63,29.93,29.67,23,8,0,0.00
2012-11-5,38.4,35.9,29.9,31.0,28.1,21.0,83,72,62,30.07,29.89,23,6,0,0.00
2012-11-6,39.4,32.6,28.3,23.0,18.2,16.0,67,55,41,30.28,30.03,19,3,0,0.00
2012-11-7,37.9,34.2,31.0,35.0,23.1,18.0,99,63,44,30.28,29.89,27,8,0,0.07
2012-11-8,41.3,38.4,33.7,41.0,37.9,33.0,99,97,93,29.91,29.65,28,8,0,1.23
2012-11-9,44.0,39.9,37.5,39.0,35.2,29.0,97,83,62,30.02,29.64,29,10,0,0.00
2012-11-10,44.9,39.5,34.1,33.0,24.8,14.0,80,56,38,30.49,29.95,30,7,0,0.00
2012-11-11,53.6,43.6,30.6,50.0,35.1,16.0,91,71,46,30.57,30.42,21,4,0,0.00
2012-11-12,63.6,57.6,51.2,56.5,49.6,39.0,94,76,41,30.48,30.29,32,6,0,0.00
2012-11-13,61.5,53.0,41.0,59.5,50.1,31.0,98,90,67,30.42,30.11,40,10,0,0.23
2012-11-14,43.6,38.3,34.8,32.0,30.7,28.0,88,74,56,30.55,30.37,23,8,0,0.00
2012-11-15,40.4,37.1,34.0,33.0,31.4,31.0,87,79,69,30.50,30.26,23,6,0,0.00
2012-11-16,41.1,36.8,34.4,33.0,30.5,28.0,86,77,63,30.42,30.24,18,6,0,0.00
2012-11-17,38.7,35.5,32.5,32.0,26.2,21.0,87,68,50,30.69,30.37,18,6,0,0.00
2012-11-18,44.3,34.3,28.3,31.0,22.2,16.0,85,62,34,30.77,30.62,17,2,0,0.00
2012-11-19,44.9,37.1,30.8,37.0,32.2,28.0,97,82,66,30.66,30.26,30,3,0,0.00
2012-11-20,49.1,39.5,32.0,35.0,30.8,26.0,97,72,39,30.29,30.13,14,3,0,0.00
2012-11-21,47.7,40.8,36.4,40.0,36.6,31.0,97,85,63,30.31,30.17,18,3,0,0.00
2012-11-22,52.9,41.6,33.7,43.0,38.7,35.0,100,90,62,30.31,30.10,13,1,0,0.00
2012-11-23,52.4,48.3,45.3,46.0,44.1,42.0,92,86,74,30.15,29.66,22,4,0,0.00
2012-11-24,51.2,44.6,32.0,47.5,39.6,21.0,90,82,61,29.69,29.35,26,6,0,0.00
2012-11-25,33.7,30.8,27.1,23.0,16.3,11.0,71,53,40,29.73,29.39,36,8,0,0.03
2012-11-26,39.3,31.2,26.0,23.0,17.2,11.0,64,53,42,30.23,29.69,24,7,0,0.00
2012-11-27,33.7,28.9,23.2,24.0,18.3,14.0,71,62,50,30.36,30.18,11,2,0,0.00
2012-11-28,33.7,31.3,26.9,24.0,21.4,18.0,75,64,56,30.29,30.06,20,5,0,0.00
2012-11-29,38.6,31.7,25.4,29.0,20.2,11.0,84,62,36,30.14,30.01,26,6,0,0.00
2012-11-30,29.4,21.5,15.1,21.0,9.2,4.0,69,55,40,30.61,30.09,29,8,0,0.00
2012-12-1,38.1,23.3,16.6,35.0,14.8,8.0,97,67,43,30.72,30.54,18,3,0,0.06
2012-12-2,54.0,47.6,38.0,53.0,45.0,33.0,98,90,79,30.57,29.95,36,12,0,0.26
2012-12-3,51.2,45.8,38.0,49.0,41.5,33.0,96,85,69,30.33,29.92,39,8,0,0.05
2012-12-4,50.5,42.4,32.4,50.0,39.9,31.0,98,91,81,30.37,30.00,49,5,0,0.00
2012-12-5,55.2,10.7,-40.0,54.0,10.1,-40.0,97,52,94,30.03,29.77,196,32,0,0.29
2012-12-6,69.9,2.7,-40.0,33.0,-5.9,-40.0,62,32,20,30.30,29.80,86,4,0,0.02
2012-12-7,44.9,36.2,23.6,41.0,28.7,14.0,96,73,60,30.29,30.02,18,3,0,0.09
2012-12-8,43.3,40.9,39.2,43.0,40.9,39.0,100,99,96,30.06,29.81,12,2,0,0.26
2012-12-9,43.0,39.0,33.4,43.0,32.9,24.0,100,79,59,30.36,29.84,30,6,0,0.01
2012-12-10,55.1,41.6,30.8,55.0,40.5,24.0,100,96,71,30.28,29.44,29,5,0,0.76
2012-12-11,43.1,36.6,25.6,43.0,32.8,21.0,100,85,72,30.11,29.47,24,6,0,0.01
2012-12-12,34.1,26.7,20.1,24.0,20.1,16.0,94,75,49,30.39,30.08,12,3,0,0.00
2012-12-13,39.8,33.4,28.2,28.0,25.6,23.0,90,72,53,30.46,30.24,10,3,0,0.00
2012-12-14,44.2,38.1,33.2,33.0,29.0,26.0,79,69,55,30.27,29.95,23,4,0,0.00
2012-12-15,34.4,23.2,15.0,29.0,12.3,4.0,78,60,44,30.39,30.04,31,11,0,0.00
2012-12-16,23.3,17.9,12.0,14.0,7.9,4.0,76,61,46,30.39,30.21,16,5,0,0.00
2012-12-17,42.4,33.0,22.5,37.0,27.2,14.0,85,77,64,30.26,29.97,30,8,0,0.00
2012-12-18,43.5,42.3,40.9,43.0,40.6,37.0,100,93,80,30.02,29.45,35,12,0,1.06
2012-12-19,43.2,37.8,33.5,43.0,36.8,32.0,100,96,90,30.00,29.41,29,8,0,0.19
2012-12-20,34.8,33.0,31.7,33.0,30.2,29.0,95,87,80,30.21,29.95,19,5,0,0.00
2012-12-21,51.8,42.7,32.1,52.0,41.0,29.0,100,93,82,30.14,29.14,52,11,63,1.06
2012-12-22,47.6,39.1,28.0,44.0,36.3,23.0,97,89,74,29.45,29.17,50,7,50,0.23
2012-12-23,31.0,27.3,22.7,23.0,17.2,14.0,81,63,49,29.78,29.41,44,7,44,0.00
2012-12-24,30.8,27.6,23.9,24.0,17.3,14.0,77,63,49,30.08,29.72,23,5,23,0.00
2012-12-25,29.9,24.9,19.1,18.0,16.4,14.0,81,69,58,30.18,29.98,22,5,22,0.00
2012-12-26,28.7,22.7,16.3,21.0,16.5,11.0,82,74,62,30.36,30.14,24,6,24,0.00
2012-12-27,36.7,31.4,24.8,35.0,30.8,21.0,100,95,77,30.19,29.38,34,10,35,0.68
2012-12-28,31.7,27.9,22.2,31.0,24.5,18.0,100,86,75,29.93,29.39,91,13,91,0.00
2012-12-29,26.5,23.9,19.7,28.0,20.8,16.0,99,86,74,30.00,29.39,32,5,32,0.00
2012-12-30,25.9,22.3,14.1,26.0,19.7,8.0,99,86,70,29.63,29.23,82,17,83,0.00
2012-12-31,30.4,22.5,13.8,24.0,14.9,8.0,80,70,57,29.83,29.59,46,8,46,0.01
2013-1-1,31.7,24.5,10.2,28.0,15.5,0.0,87,66,44,29.77,29.52,40,8,40,0.00